User: anonymous   Login
Location: Unspecified
(0.0000°N, 0.0000°E)
Time: 14:04:03
(UTC+02:00)
Language:

Cosmos 1092 Rocket - Orbit

View from above orbital plane
View from above orbital plane
View from above satellite
View from above satellite

Ground track
Ground track

The orbit data is extracted from the following two-line orbital elements,

1 11327U 79030B   15148.08900193 -.00000035  00000-0 -51513-4 0  9991
2 11327 082.9481 133.5635 0028902 120.6593 307.3095 13.76957163815774
Epoch (UTC): 28 May 2015 02:08:09
Eccentricity: 0.0028902
inclination: 82.9481°
perigee height: 953 km
apogee height: 996 km
right ascension of ascending node: 133.5635°
argument of perigee: 120.6593°
revolutions per day: 13.76957163
mean anomaly at epoch: 307.3095°
orbit number at epoch: 81577

The dashed part of the orbit path shows where the satellite is in the earth's shadow,  

DLR